Вернуться в каталог

QIANFAN-197

АктивенСвязьPO
NORAD 69415·PAYLOAD·🇨🇳 China

Запущен Jun 5, 2026 с Wenchang Space Launch Site

Loading…

Ближайшие Пролёты (ближайшие 24 часа)

TLE

СвежийSource: Space-Track

Эпоха: Sep 14, 2026, 23:17 UTC

1 69415U 26125Q   26257.97021289  .00000006  00000-0 -10009-4 0  9992
2 69415  88.9879 270.8349 0001955 100.4195 259.7176 13.51023707 14088

Отслеживайте QIANFAN-197 в реальном времени с AllMySat

Download on the App Store